Location: Lake Almanor
(40.2485°N, 121.1442°W)
Time: 18:36:22
(UTC-08:00)

STARLINK-1087 - Pass Details

Date: 29 January 2020
Orbit: 348 x 351 km, 53.0° (Epoch: 23 February)

Event Time Altitude Azimuth Distance (km) Brightness Sun altitude
Rises 18:45:26 0° 316° (NW) 2,179 7.2 -16.6°
Reaches altitude 10° 18:47:37 10° 329° (NNW) 1,331 5.9 -17.0°
Enters shadow 18:49:30 24° 4° (N) 780 4.3 -17.4°
